Terminal Aerodrome Forecast
Issued by NWS

Home | Current Version | Previous Version | Text Only | Print | Product List | Glossary On
Versions: 1 2 3 4 5 6 7 8 9 10 11 12 13 14 15 16 17 18 19 20 21 22 23 24 25 26 27 28
000
FTUS41 KBUF 271100
TAFIAG
TAF
KIAG 271130Z 2712/2812 04011KT 2SM -SN VCSH SCT014 OVC019
     FM271500 03012KT P6SM -SN OVC020
     FM271800 02012KT P6SM OVC050
     FM272300 35010KT P6SM SCT090
     FM280500 32006KT P6SM FEW250
     FM281000 28005KT P6SM FEW250=

USA.gov is the U.S. government's official web portal to all federal, state and local government web resources and services.